Regional Weather Roundup
Issued by NWS

Home | Current Version | Previous Version | Text Only | Print | Product List | Glossary On
Versions: 1 2 3 4 5 6 7 8 9 10 11 12 13 14 15 16 17 18 19 20 21 22 23 24 25 26 27 28 29 30 31 32 33 34 35 36 37 38 39 40 41 42 43 44 45 46 47 48 49 50
000
ASUS43 KLOT 201110
RWRIL

ILLINOIS REGIONAL WEATHER ROUNDUP
NATIONAL WEATHER SERVICE CHICAGO/ROMEOVILLE IL
600 AM CDT MON OCT 20 2014

NOTE: "FAIR" INDICATES FEW OR NO CLOUDS BELOW 12,000 FEET WITH NO
SIGNIFICANT WEATHER AND/OR OBSTRUCTIONS TO VISIBILITY.

* THESE STATIONS ARE NOT UNDER NWS QUALITY CONTROL. THEY ALSO MAY NOT
  REPORT WEATHER SUCH AS PRECIPITATION OR FOG.

ILZ001-002-007-009-015-016-024-201200-
NORTHWEST ILLINOIS

CITY           SKY/WX    TMP DP  RH WIND       PRES   REMARKS
MOLINE         CLEAR     48  44  86 W7        29.87R
STERLING*      CLEAR     43  37  81 W8        29.84R
SAVANNA*       CLEAR     48  44  84 NW3       29.85R
$$

ILZ003-004-008-010-011-017-018-201200-
NORTH CENTRAL ILLINOIS

CITY           SKY/WX    TMP DP  RH WIND       PRES   REMARKS
ROCKFORD       CLEAR     46  41  82 W3        29.83R
FREEPORT*      CLEAR     44  42  91 W7        29.84R
ROCHELLE*      CLEAR     43  42  95 CALM      29.83R
DE KALB*       CLEAR     46  42  86 W8        29.82S
PERU*          PTCLDY    49  45  85 SW10      29.84F
$$

ILZ005-006-012>014-019>023-201200-
NORTHEAST ILLINOIS

CITY           SKY/WX    TMP DP  RH WIND       PRES   REMARKS
CHICAGO-OHARE  MOCLDY    49  44  83 SW8       29.80F
CHICAGO-MIDWAY MOCLDY    51  45  79 SW7       29.81F
AURORA         PTCLDY    47  42  83 SW6       29.81F
LANSING*       MOCLDY    49  44  84 SW9       29.83F
JOLIET*        MOCLDY    45  43  93 S3        29.83S
WAUKEGAN       PTCLDY    48  43  82 VRB7      29.77F
DUPAGE AIRPORT PTCLDY    45  42  89 S5        29.80F
KANKAKEE*      PTCLDY    49  46  87 SW9       29.85F
WHEELING       PTCLDY    50  44  80 SW6       29.80F
MORRIS*        PTCLDY    48  46  92 SW5       29.81F
ROMEOVILLE*    MOCLDY    47  46  93 SW7       29.82S
NORTHERLY ISL    N/A     51  44  77 W13         N/A
$$

LMZ740>746-201200-
SOUTHERN LAKE MICHIGAN

STATION/POSITION SKY/WX   TEMP    WIND        PRES    VSBY  WAVE
                          AIR SEA DIR/SP/G                  HT/PER
                          (F)     (DEG/KT/KT) (MB)    (MI)  (FT/S)
SOUTHERN BUOY              54 55  240/ 14/ 17 1008.3F         4/ 6
WAUKEGAN HARBOR            51     260/ 12/ 16   N/A
HARRISON CRIB              53     230/ 20/ 24   N/A
BURNHAM HARBOR             51     250/ 14/ 15   N/A
CALUMET HARBOR             51     210/  9/ 14 1008.2F
MICHIGAN CITY              50     160/ 11/ 13   N/A
$$

ILZ025>027-034>036-040-047-049-050-058-095>099-201200-
WEST-CENTRAL ILLINOIS

CITY           SKY/WX    TMP DP  RH WIND       PRES   REMARKS
QUINCY         CLEAR     54  49  83 W8        29.92R
GALESBURG*     CLEAR     47  45  90 W7        29.89R
MACOMB*        CLEAR     51  47  89 W7        29.92R
JACKSONVILLE*  CLEAR     51  48  87 SW5       29.92R
PITTSFIELD*    CLEAR     56  50  80 W7        29.93S
$$

ILZ028>032-037-038-041>044-048-051>054-059>061-201200-
CENTRAL ILLINOIS

CITY           SKY/WX    TMP DP  RH WIND       PRES   REMARKS
PONTIAC        MOCLDY    52  48  87 SW8       29.85F
BLOOMINGTON    CLEAR     49  46  89 SW13      29.89S
DECATUR        CLOUDY    53  47  79 SW10      29.91F
PEORIA         CLEAR     49  44  83 SW3       29.88S
LACON*         CLEAR     50  45  81 W8        29.85S
LINCOLN*       CLEAR     51  47  86 CALM      29.88F
SPRINGFIELD    CLEAR     52  47  83 SW6       29.91S
TAYLORVILLE    CLOUDY    50  46  87 SW8       29.92F
$$

ILZ033-039-045-046-055>057-062-063-201200-
EAST-CENTRAL ILLINOIS

CITY           SKY/WX    TMP DP  RH WIND       PRES   REMARKS
CHAMPAIGN      CLOUDY    51  47  86 S9        29.90F
DANVILLE*      CLOUDY    50  46  85 SW9       29.88F
RANTOUL*       MOCLDY    52  46  78 SW12      29.89F
MATTOON        MOCLDY    50  46  86 S12       29.92F
PARIS*         CLOUDY    51  47  87 S7        29.93F
$$

ILZ079-100>102-201200-
SOUTHWEST ILLINOIS

CITY           SKY/WX    TMP DP  RH WIND       PRES   REMARKS
ALTON          PTCLDY    53  47  80 SW8       29.96S
BELLEVILLE     CLOUDY    52  48  87 SE2       29.96F
CAHOKIA*       MOCLDY    56  47  71 SW5       29.97S
SPARTA*        MOCLDY    51  47  84 SW5       30.00F
$$

ILZ064>066-069>071-074>076-080>082-084>086-088>090-092>094-201200-
SOUTH-CENTRAL ILLINOIS

CITY           SKY/WX    TMP DP  RH WIND       PRES   REMARKS
CARBONDALE     MOCLDY    49  45  86 SW6       30.01F
CAIRO*         MOCLDY    52  48  88 S3        30.04S
EFFINGHAM*     MOCLDY    50  45  84 S3        29.95F
MARION         PTCLDY    50  46  87 SW5       30.02S
MT. VERNON     MOCLDY    50  45  81 SW6       30.00S
CENTRALIA*     MOCLDY    52  46  82 SW6       29.98S
SALEM*         MOCLDY    54  50  86 SW7       29.98S
METROPOLIS*    PTCLDY    47  47 100 CALM      30.03F FOG
$$

ILZ067-068-072-073-078-083-087-091-201200-
SOUTHEAST ILLINOIS

CITY           SKY/WX    TMP DP  RH WIND       PRES   REMARKS
LAWRENCEVILLE  MOCLDY    49  47  93 S6        29.99F
FLORA*         MOCLDY    51  48  88 S8        29.98F
FAIRFIELD*     CLOUDY    50  48  92 S5        29.99S
HARRISBURG*    MOCLDY    49  48  98 CALM      30.03S
ROBINSON*      MOCLDY    51  48  91 S6        29.98F
CARMI*         CLOUDY    52  49  90 S7        30.01S
$$

ABBREVIATIONS USED IN REMARKS
   TC - TEMPERATURE IN CELSIUS
  WCI - WIND CHILL INDEX
   HX - HEAT INDEX
  VSB - VISIBILITY
$$




USA.gov is the U.S. government's official web portal to all federal, state and local government web resources and services.